Location: Newark
(49.3667°N, 21.6167°E)
Time: 06:27:20
(UTC+00:00)

Envisat - Pass Details

Date: 08 December 2019
Orbit: 764 x 766 km, 98.1° (Epoch: 20 January)

Event Time Altitude Azimuth Distance (km) Brightness Sun altitude
Rises 04:12:47 0° 26° (NNE) 3,246 6.4 -19.0°
Reaches altitude 10° 04:15:47 10° 44° (NE) 2,313 5.9 -18.5°
Maximum altitude 04:19:22 19° 89° (E) 1,762 5.8 -17.9°
Drops below altitude 10° 04:22:56 10° 134° (SE) 2,300 6.4 -17.4°
Sets 04:25:53 0° 152° (SSE) 3,220 6.9 -16.9°
